ORBCOMM FM115 [+]

Last updated on July 6, 2021, 3:36 p.m. UTC

1 41186U 15081H   21186.82981911 -.00000042  00000-0  27323-4 0  9990
2 41186  47.0009  32.1346 0001041 313.6676  46.4123 14.58730488297005
UTC
Height (km)
Latitude
Longitude
Inclination
Orbital Period
UTC large
Height (km)
Speed (km/s)
/
Latitude / Longitude
Inclination (degrees)
Orbital Period (minutes)
Azimuth
Elevation
Range (km)
Doppler Factor
iOS Compass Heading
iOS Angle